[[[{"header":{"parameterUnit":"kt","parameterCategory":2,"dx":1,"dy":1,"la1":30.253999710083008,"la2":30.299108505249023,"lo1":-89.0895004272461,"lo2":-89.04439544677734,"nx":28,"ny":28,"refTime":"2022-09-18T21:00:00:Z","depth":0,"parameterNumber":1,"parameterNumberName":"U-component_of_WINDS"},"data":[-0.3031,-0.2876,-0.2848,-0.2657,-0.26,-0.2464,-0.2406,-0.2329,-0.2259,-0.2093,-0.1992,-0.1947,-0.1865,-0.1737,-0.1625,-0.1607,-0.1561,-0.1527,-0.1512,-0.1694,-0.1718,-0.174,-0.1776,-0.1517,-0.1517,-0.1326,-0.1324,-0.1323,-0.3166,-0.3108,-0.2999,-0.2875,-0.2781,-0.2798,-0.2699,-0.262,-0.2497,-0.2411,-0.231,-0.2161,-0.2039,-0.1968,-0.1846,-0.1771,-0.1771,-0.174,-0.1744,-0.1731,-0.1926,-0.1964,-0.1741,-0.1741,-0.1741,-0.1741,-0.1741,-0.1741,-0.3403,-0.3311,-0.3221,-0.3103,-0.3032,-0.2949,-0.2856,-0.2804,-0.2696,-0.2567,-0.2554,-0.2414,-0.2322,-0.216,-0.2099,-0.1989,-0.2018,-0.1975,-0.1963,-0.1953,-0.1945,-0.2223,-0.1967,-0.1967,-0.1968,-0.1968,-0.1968,0,-0.3569,-0.3552,-0.3446,-0.3332,-0.3244,-0.3153,-0.3064,-0.3006,-0.296,-0.2873,-0.2744,-0.2665,-0.2508,-0.2383,-0.2262,-0.2207,-0.2214,-0.2212,-0.2182,-0.2186,-0.2205,-0.2192,-0.2509,-0.222,-0.2222,-0.2223,-0.2224,-0.2225,-0.3806,-0.3702,-0.3595,-0.3524,-0.3469,-0.3356,-0.3282,-0.325,-0.3173,-0.3058,-0.2978,-0.2852,-0.2751,-0.2548,-0.2487,-0.2369,-0.2371,-0.2264,-0.2354,-0.2362,-0.2368,-0.2375,-0.2363,-0.2247,-0.2244,-0.2242,-0.224,0,-0.3941,-0.3898,-0.3729,-0.3633,-0.3605,-0.3498,-0.3414,-0.3321,-0.3281,-0.3146,-0.3112,-0.3048,-0.2922,-0.2878,-0.2725,-0.2706,-0.2525,-0.2531,-0.2556,-0.2555,-0.2453,-0.2463,-0.2133,-0.2088,-0.2356,-0.2353,-0.2351,0,-0.4126,-0.3992,-0.3935,-0.3839,-0.3688,-0.366,-0.3511,-0.3462,-0.3383,-0.3277,-0.328,-0.318,-0.314,-0.3032,-0.3004,-0.2849,-0.282,-0.2796,-0.279,-0.2795,-0.2798,-0.2752,-0.2765,-0.2781,-0.2783,-0.2785,-0.2786,0,-0.4343,-0.4156,-0.4001,-0.3951,-0.3834,-0.3762,-0.3709,-0.3622,-0.355,-0.3449,-0.3402,-0.3286,-0.3223,-0.3133,-0.3097,-0.316,-0.2907,-0.2986,-0.2882,-0.2882,-0.2828,-0.2831,-0.2551,-0.2788,-0.2789,-0.2789,-0.279,0,-0.4486,-0.4388,-0.4169,-0.4073,-0.4025,-0.3922,-0.3808,-0.371,-0.3617,-0.3593,-0.3513,-0.351,-0.3372,-0.3453,-0.3262,-0.3353,-0.329,-0.3254,-0.3246,-0.323,-0.3322,-0.3168,-0.2906,-0.2877,-0.3216,-0.322,-0.3223,0,-0.4746,-0.4515,-0.449,-0.4283,-0.4171,-0.4182,-0.4067,-0.3986,-0.3945,-0.3842,-0.3796,-0.3679,-0.373,-0.3687,-0.3598,-0.3546,-0.3427,-0.3561,-0.3409,-0.3404,-0.3433,-0.3192,-0.3164,-0.2969,-0.3268,-0.3263,-0.326,0,-0.4942,-0.4804,-0.4769,-0.4711,-0.4601,-0.4507,-0.4375,-0.4254,-0.4187,-0.4095,-0.3983,-0.3817,-0.3849,-0.3778,-0.3764,-0.3673,-0.3506,-0.3719,-0.3716,-0.3681,-0.3288,-0.3261,-0.3229,-0.3516,-0.3511,-0.3506,-0.3296,0,-0.5165,-0.5045,-0.4949,-0.4823,-0.4744,-0.4613,-0.4569,-0.4492,-0.4486,-0.4446,-0.4281,-0.4203,-0.4078,-0.403,-0.4024,-0.3831,-0.3857,-0.3892,-0.3967,-0.381,-0.3739,-0.371,-0.4076,-0.4078,-0.4079,-0.4081,0,0,-0.5424,-0.5252,-0.523,-0.5103,-0.5035,-0.505,-0.4913,-0.4848,-0.4717,-0.4668,-0.471,-0.4466,-0.44,-0.4204,-0.4151,-0.4101,-0.4062,-0.4119,-0.3885,-0.3864,-0.3843,-0.3769,-0.374,-0.4084,-0.4084,-0.4085,-0.4085,0,-0.5497,-0.5434,-0.53,-0.5233,-0.5132,-0.5097,-0.5065,-0.4968,-0.4936,-0.4775,-0.4788,-0.4684,-0.449,-0.4418,-0.4356,-0.4142,-0.4157,-0.4107,-0.4007,-0.3903,-0.388,-0.3858,-0.378,-0.3753,-0.4089,-0.4089,-0.4089,0,-0.5682,-0.5611,-0.5543,-0.5391,-0.5326,-0.521,-0.5279,-0.5154,-0.5067,-0.5088,-0.4928,-0.4879,-0.4779,-0.46,-0.4518,-0.4554,-0.4246,-0.4336,-0.4324,-0.4314,-0.4211,-0.4183,-0.4158,-0.4492,-0.4493,-0.4495,0,0,-0.5751,-0.564,-0.5555,-0.5404,-0.5362,-0.5308,-0.5243,-0.5231,-0.5143,-0.5108,-0.5045,-0.4957,-0.4844,-0.477,-0.4661,-0.4471,-0.4447,-0.4387,-0.4368,-0.4353,-0.4334,-0.4228,-0.42,-0.4501,-0.4501,-0.4501,0,0,-0.5783,-0.568,-0.5691,-0.5511,-0.5427,-0.5333,-0.5241,-0.5252,-0.5151,-0.5161,-0.5133,-0.5109,-0.4941,-0.4891,-0.4977,-0.4687,-0.4762,-0.4741,-0.4725,-0.4701,-0.4682,-0.4697,-0.5035,0,0,0,0,0,-0.5837,-0.5693,-0.5704,-0.5668,-0.5476,-0.5327,-0.5302,-0.5277,-0.5331,-0.5259,-0.5208,-0.5229,-0.4932,-0.5007,-0.497,-0.4875,-0.4578,-0.4565,-0.4552,-0.4487,-0.4461,-0.444,0,0,0,0,0,0,-0.5822,-0.5778,-0.5708,-0.5608,-0.5564,-0.5332,-0.5418,-0.5407,-0.5338,-0.5345,-0.5239,-0.5226,-0.5201,-0.5024,-0.4991,-0.4901,-0.5046,-0.4573,-0.4561,-0.4551,-0.4478,-0.4457,-0.444,0,0,0,0,0,-0.5811,-0.5775,-0.5474,-0.561,-0.5572,-0.5505,-0.5423,-0.5415,-0.5361,-0.5282,-0.527,-0.5349,-0.5199,-0.517,-0.5004,-0.4917,-0.5069,-0.5057,-0.4565,-0.4556,-0.4548,-0.4468,0,0,0,0,0,0,-0.5802,-0.5765,-0.5466,-0.5453,-0.5663,-0.5517,-0.5494,-0.5421,-0.5302,-0.5289,-0.5392,-0.5398,-0.5196,-0.5174,-0.5151,-0.4923,-0.5087,-0.5075,-0.5067,-0.4558,-0.4551,-0.4545,0,0,0,0,0,0,-0.5784,-0.5755,-0.5459,-0.5528,-0.5523,-0.5529,-0.5508,-0.5364,-0.53,-0.5418,-0.542,-0.5396,-0.523,-0.5176,-0.5158,-0.4934,-0.5101,-0.509,-0.5081,-0.5076,-0.4552,-0.4547,0,0,0,0,0,0,-0.5771,-0.5746,-0.5531,-0.5527,-0.5523,-0.5381,-0.5401,-0.5205,-0.5361,-0.5423,-0.5374,-0.538,-0.5231,-0.5213,-0.5163,-0.4947,-0.4938,-0.5101,-0.5093,-0.5087,-0.5083,0,0,0,0,0,0,0,-0.5761,-0.5938,-0.554,-0.5527,-0.5523,-0.5338,-0.5334,-0.5331,-0.5362,-0.5368,-0.5373,-0.5378,-0.5169,-0.5156,-0.5143,-0.4957,0,0,-0.5102,-0.5096,0,0,0,0,0,0,0,0,-0.5949,-0.5941,-0.554,-0.5537,-0.5535,-0.5337,-0.5334,-0.5332,-0.5363,-0.5367,-0.5372,-0.5376,-0.5165,-0.5155,-0.5144,0,0,0,0,0,0,0,0,0,0,0,0,0,0,0,-0.5539,-0.5537,0,-0.5337,-0.5335,-0.5332,-0.5364,-0.5367,-0.5371,-0.5374,-0.5162,-0.5154,-0.5145,0,0,0,0,0,0,0,0,0,0,0,0,0,0,0,0,0,0,0,0,0,0,0,0,0,0,0,0,0,0,0,0,0,0,0,0,0,0,0,0,0,0,0,0,0,0,0,0,0,0,0,0,0,0,0,0,0,0,0,0,0,0,0,0,0,0,0,0,0]}],[{"header":{"parameterUnit":"kt","parameterCategory":2,"dx":1,"dy":1,"la1":30.253999710083008,"la2":30.299108505249023,"lo1":-89.0895004272461,"lo2":-89.04439544677734,"nx":28,"ny":28,"refTime":"2022-09-18T21:00:00:Z","depth":0,"parameterNumber":2,"parameterNumberName":"V-component_of_WINDS"},"data":[-2.4011,-2.4016,-2.4116,-2.4166,-2.4264,-2.4317,-2.4367,-2.4443,-2.4528,-2.4601,-2.4661,-2.476,-2.4884,-2.4978,-2.5048,-2.5091,-2.5114,-2.5045,-2.5107,-2.5328,-2.5366,-2.5401,-2.5409,-2.5047,-2.5047,-2.4866,-2.4864,-2.4863,-2.4171,-2.4268,-2.4323,-2.4444,-2.4493,-2.4622,-2.4728,-2.476,-2.4802,-2.4906,-2.4969,-2.5041,-2.5109,-2.526,-2.5342,-2.5347,-2.5412,-2.5363,-2.5366,-2.5384,-2.5623,-2.563,-2.5309,-2.5309,-2.5309,-2.531,-2.531,-2.531,-2.4489,-2.4487,-2.4619,-2.4681,-2.4768,-2.4848,-2.4863,-2.4987,-2.5041,-2.5139,-2.5246,-2.5295,-2.5417,-2.5564,-2.5637,-2.5679,-2.5751,-2.5728,-2.5723,-2.5715,-2.5695,-2.5951,-2.5697,-2.5698,-2.5699,-2.57,-2.5701,0,-2.4755,-2.4839,-2.4898,-2.4987,-2.5037,-2.5114,-2.5202,-2.5214,-2.5424,-2.5459,-2.5519,-2.557,-2.567,-2.5738,-2.5836,-2.5919,-2.6055,-2.6077,-2.6063,-2.6014,-2.5959,-2.5993,-2.6382,-2.6084,-2.6088,-2.609,-2.6092,-2.6094,-2.5086,-2.507,-2.5255,-2.5283,-2.5357,-2.5397,-2.5443,-2.563,-2.5669,-2.5804,-2.5791,-2.5861,-2.5926,-2.6003,-2.6145,-2.6219,-2.6286,-2.6163,-2.6298,-2.6253,-2.629,-2.629,-2.6292,-2.6133,-2.6128,-2.6124,-2.612,0,-2.5265,-2.5428,-2.5435,-2.562,-2.5666,-2.5638,-2.5797,-2.5801,-2.592,-2.5941,-2.5957,-2.6142,-2.6196,-2.6361,-2.6453,-2.6537,-2.6497,-2.6558,-2.6459,-2.6481,-2.6389,-2.6397,-2.6058,-2.6025,-2.6398,-2.6394,-2.6391,0,-2.5614,-2.5583,-2.583,-2.5824,-2.5799,-2.5988,-2.5957,-2.6056,-2.6165,-2.6184,-2.6365,-2.6378,-2.6585,-2.6622,-2.6745,-2.6741,-2.6757,-2.6823,-2.6856,-2.6808,-2.68,-2.6832,-2.6851,-2.6928,-2.6929,-2.6931,-2.6932,0,-2.5878,-2.5972,-2.5965,-2.6013,-2.6206,-2.6197,-2.6277,-2.64,-2.644,-2.652,-2.6549,-2.6626,-2.6668,-2.6725,-2.6883,-2.697,-2.688,-2.7032,-2.6948,-2.6943,-2.692,-2.692,-2.6577,-2.6934,-2.6934,-2.6935,-2.6935,0,-2.6186,-2.6264,-2.6225,-2.6393,-2.641,-2.6402,-2.6495,-2.6526,-2.6642,-2.6721,-2.6784,-2.6924,-2.6931,-2.7071,-2.7084,-2.7153,-2.7184,-2.7247,-2.7244,-2.7256,-2.7408,-2.7197,-2.6851,-2.6823,-2.7266,-2.7269,-2.7272,0,-2.6446,-2.645,-2.6615,-2.6573,-2.6599,-2.6806,-2.6801,-2.6897,-2.7002,-2.7039,-2.7155,-2.7193,-2.7331,-2.7366,-2.7351,-2.7471,-2.7381,-2.7488,-2.7539,-2.7539,-2.7507,-2.719,-2.7099,-2.6909,-2.7309,-2.7305,-2.7302,0,-2.6668,-2.6904,-2.6884,-2.6949,-2.7108,-2.7128,-2.7121,-2.7203,-2.7219,-2.7305,-2.7306,-2.7361,-2.747,-2.7524,-2.7645,-2.762,-2.7448,-2.7739,-2.7745,-2.7684,-2.734,-2.7255,-2.7222,-2.7535,-2.7531,-2.7527,-2.7332,0,-2.7104,-2.7126,-2.708,-2.7211,-2.7253,-2.7234,-2.7411,-2.7432,-2.7548,-2.7659,-2.766,-2.7778,-2.7857,-2.7861,-2.7971,-2.7861,-2.7906,-2.8019,-2.8168,-2.7957,-2.7897,-2.7872,-2.8243,-2.8248,-2.8253,-2.8257,0,0,-2.7313,-2.7349,-2.7529,-2.753,-2.7577,-2.7791,-2.7756,-2.7825,-2.7958,-2.7986,-2.8071,-2.8164,-2.8255,-2.8238,-2.8186,-2.8215,-2.8213,-2.8278,-2.8055,-2.8031,-2.801,-2.7943,-2.7915,-2.8265,-2.8266,-2.8268,-2.8269,0,-2.7511,-2.7602,-2.7565,-2.7647,-2.7774,-2.7894,-2.7885,-2.8047,-2.8116,-2.8117,-2.8292,-2.8312,-2.8378,-2.8455,-2.8502,-2.8285,-2.8415,-2.8294,-2.8122,-2.8094,-2.8065,-2.804,-2.7967,-2.7937,-2.828,-2.828,-2.8279,0,-2.7764,-2.7886,-2.7886,-2.8001,-2.8085,-2.8103,-2.8305,-2.8313,-2.833,-2.8559,-2.8556,-2.8644,-2.8758,-2.8717,-2.8704,-2.878,-2.8589,-2.8678,-2.8654,-2.8657,-2.8639,-2.8603,-2.8571,-2.8988,-2.899,-2.8992,0,0,-2.791,-2.7931,-2.8118,-2.8057,-2.8098,-2.8275,-2.8301,-2.842,-2.852,-2.8558,-2.8675,-2.8765,-2.8808,-2.883,-2.8878,-2.8805,-2.8846,-2.8758,-2.8725,-2.8697,-2.8683,-2.8658,-2.8623,-2.8998,-2.8999,-2.8999,0,0,-2.7979,-2.8196,-2.8295,-2.8246,-2.8336,-2.8515,-2.847,-2.8596,-2.8657,-2.8678,-2.8875,-2.8907,-2.8871,-2.8949,-2.9019,-2.8934,-2.9077,-2.9064,-2.8884,-2.8844,-2.8812,-2.8795,-2.924,0,0,0,0,0,-2.8272,-2.817,-2.8258,-2.8276,-2.842,-2.8466,-2.8486,-2.8648,-2.8749,-2.871,-2.8828,-2.8965,-2.9029,-2.9095,-2.9109,-2.9029,-2.9085,-2.9069,-2.9055,-2.8807,-2.8764,-2.8727,0,0,0,0,0,0,-2.8281,-2.8302,-2.8261,-2.8432,-2.8467,-2.8472,-2.8678,-2.872,-2.8757,-2.8784,-2.8938,-2.8969,-2.9106,-2.9099,-2.9109,-2.903,-2.9237,-2.9079,-2.9066,-2.9054,-2.8792,-2.8757,-2.8726,0,0,0,0,0,-2.8288,-2.8306,-2.8495,-2.8436,-2.8465,-2.8657,-2.8683,-2.872,-2.8751,-2.8933,-2.8969,-2.887,-2.91,-2.9119,-2.9106,-2.9022,-2.9231,-2.9234,-2.907,-2.906,-2.9051,-2.8775,0,0,0,0,0,0,-2.8294,-2.8339,-2.8504,-2.8519,-2.8487,-2.866,-2.8693,-2.8718,-2.8902,-2.8936,-2.8875,-2.8894,-2.9094,-2.911,-2.9124,-2.901,-2.9226,-2.923,-2.9231,-2.9062,-2.9054,-2.9047,0,0,0,0,0,0,-2.8331,-2.835,-2.8512,-2.8567,-2.8591,-2.8662,-2.8691,-2.8701,-2.8901,-2.8834,-2.8856,-2.8881,-2.9072,-2.9103,-2.9114,-2.9124,-2.9223,-2.9226,-2.9228,-2.9229,-2.9056,-2.905,0,0,0,0,0,0,-2.8342,-2.8359,-2.8565,-2.8582,-2.8603,-2.8784,-2.8674,-2.8811,-2.895,-2.8823,-2.8967,-2.8975,-2.906,-2.9076,-2.9107,-2.911,-2.9121,-2.9223,-2.9225,-2.9226,-2.9227,0,0,0,0,0,0,0,-2.8351,-2.8201,-2.8415,-2.8594,-2.8613,-2.8658,-2.8662,-2.8667,-2.8952,-2.8959,-2.8965,-2.8972,-2.9206,-2.9209,-2.9212,-2.9099,0,0,-2.9223,-2.9224,0,0,0,0,0,0,0,0,-2.8197,-2.82,-2.8416,-2.8419,-2.8422,-2.8659,-2.8662,-2.8666,-2.8953,-2.8959,-2.8964,-2.8969,-2.9207,-2.9209,-2.9212,0,0,0,0,0,0,0,0,0,0,0,0,0,0,0,-2.8416,-2.8419,0,-2.8659,-2.8662,-2.8665,-2.8954,-2.8958,-2.8963,-2.8967,-2.9207,-2.921,-2.9212,0,0,0,0,0,0,0,0,0,0,0,0,0,0,0,0,0,0,0,0,0,0,0,0,0,0,0,0,0,0,0,0,0,0,0,0,0,0,0,0,0,0,0,0,0,0,0,0,0,0,0,0,0,0,0,0,0,0,0,0,0,0,0,0,0,0,0,0,0]}]]]